EW7868 Weather Reports


Display with metric or nautical units.
time (UTC)temp
F
wind
direction
speed
MPH
gust
MPH
rain 1hr
in
rain 24hr
in
rain mn
in
humidity
%
barometer
mb
20260503230305 70 205 3.0 9.0 0.00 0.02 0.02 46 1005.0
20260503225803 70 198 7.0 12.0 0.00 0.02 0.02 46 1005.0
20260503225258 70 192 7.0 7.0 0.00 0.02 0.02 46 1004.9
20260503224755 70 197 6.0 7.0 0.00 0.02 0.02 46 1004.9
20260503224253 70 199 9.0 11.0 0.00 0.02 0.02 47 1005.0
20260503223750 70 203 0.0 9.0 0.00 0.02 0.02 47 1005.1
20260503223248 71 202 6.0 11.0 0.00 0.02 0.02 45 1005.1
20260503222743 71 208 6.0 14.0 0.00 0.02 0.02 45 1005.1
20260503222242 70 201 7.0 11.0 0.00 0.02 0.02 45 1005.2
20260503221740 71 180 3.0 12.0 0.00 0.02 0.02 45 1005.2
20260503221237 71 219 3.0 14.0 0.00 0.02 0.02 46 1005.3
20260503220733 71 49 2.0 14.0 0.00 0.02 0.02 45 1005.2
20260503220231 71 213 0.0 16.0 0.00 0.02 0.02 45 1005.2
20260503215727 71 197 3.0 13.0 0.00 0.02 0.02 43 1005.4
20260503215224 70 90 0.0 8.0 0.00 0.02 0.02 44 1005.3
20260503214722 68 193 9.0 9.0 0.00 0.02 0.02 47 1005.5
20260503214219 69 202 5.0 10.0 0.00 0.02 0.02 45 1005.7
20260503213717 69 206 7.0 13.0 0.00 0.02 0.02 45 1005.4
20260503213214 68 241 2.0 7.0 0.00 0.02 0.02 47 1005.6
20260503212711 67 190 3.0 16.0 0.00 0.02 0.02 47 1005.7
20260503212209 68 209 7.0 16.0 0.00 0.02 0.02 47 1005.5
20260503211706 69 192 2.0 16.0 0.00 0.02 0.02 45 1005.5
20260503211202 68 190 7.0 15.0 0.00 0.02 0.02 46 1005.7
20260503210658 67 208 7.0 13.0 0.00 0.02 0.02 48 1005.9
20260503210155 67 205 6.0 14.0 0.00 0.02 0.02 46 1005.9
20260503205650 69 198 3.0 14.0 0.00 0.02 0.02 45 1006.0
20260503205146 69 185 6.0 21.0 0.00 0.02 0.02 46 1006.0
20260503204643 68 194 10.0 19.0 0.00 0.02 0.02 45 1006.2
20260503204141 67 198 8.0 15.0 0.00 0.02 0.02 47 1006.2
20260503203638 66 190 5.0 16.0 0.00 0.02 0.02 48 1006.6
20260503203136 66 189 2.0 12.0 0.00 0.02 0.02 48 1006.6
20260503202633 65 207 7.0 16.0 0.00 0.02 0.02 47 1006.6
20260503202131 66 200 10.0 22.0 0.00 0.02 0.02 46 1006.6
20260503201628 67 199 5.0 20.0 0.00 0.02 0.02 47 1007.3
20260503201126 66 200 11.0 22.0 0.00 0.02 0.02 45 1007.0
20260503200621 66 210 7.0 15.0 0.00 0.02 0.02 44 1007.2
20260503200118 68 198 9.0 15.0 0.00 0.02 0.02 44 1007.1
20260503195615 67 201 16.0 16.0 0.00 0.02 0.02 44 1007.1
20260503195112 66 218 7.0 17.0 0.00 0.02 0.02 46 1007.3
20260503194609 65 196 7.0 19.0 0.00 0.02 0.02 46 1007.2
20260503194104 65 197 13.0 23.0 0.00 0.02 0.02 45 1007.3
20260503193601 64 207 3.0 17.0 0.00 0.02 0.02 46 1007.5
20260503193056 65 196 8.0 26.0 0.00 0.02 0.02 45 1007.3
20260503192553 66 238 3.0 21.0 0.00 0.02 0.02 46 1007.6
20260503192048 66 197 14.0 21.0 0.00 0.02 0.02 47 1007.5
20260503191545 66 197 14.0 17.0 0.00 0.02 0.02 47 1007.6
20260503191042 65 192 5.0 24.0 0.00 0.02 0.02 47 1007.4
20260503190539 65 201 13.0 17.0 0.00 0.02 0.02 49 1007.5
20260503190037 65 197 9.0 20.0 0.00 0.02 0.02 48 1007.7
20260503185533 65 197 13.0 19.0 0.00 0.02 0.02 49 1007.8
20260503185032 65 202 11.0 21.0 0.00 0.02 0.02 52 1007.7
20260503184529 63 229 5.0 18.0 0.00 0.02 0.02 53 1008.0
20260503184026 63 188 4.0 16.0 0.00 0.02 0.02 54 1008.3
20260503183522 63 217 15.0 22.0 0.00 0.02 0.02 54 1008.3
20260503183019 64 184 4.0 13.0 0.00 0.02 0.02 60 1008.5
20260503182518 62 226 5.0 12.0 0.00 0.02 0.02 60 1008.6
20260503182015 62 194 9.0 15.0 0.00 0.02 0.02 60 1008.6
20260503181512 61 218 5.0 14.0 0.00 0.02 0.02 62 1008.9
20260503181008 61 193 5.0 10.0 0.00 0.02 0.02 64 1009.0
20260503180506 60 180 0.0 11.0 0.00 0.02 0.02 63 1009.5
20260503180003 59 341 3.0 16.0 0.00 0.02 0.02 65 1009.4
20260503175501 59 139 2.0 12.0 0.00 0.02 0.02 65 1009.6
20260503174956 57 191 5.0 16.0 0.00 0.02 0.02 66 1009.7
20260503174455 55 117 0.0 10.0 0.00 0.02 0.02 70 1010.1
20260503173950 55 200 7.0 12.0 0.00 0.02 0.02 69 1010.3
20260503173446 55 191 5.0 13.0 0.00 0.02 0.02 71 1010.7
20260503172943 55 200 8.0 9.0 0.00 0.02 0.02 72 1010.7
20260503172440 55 29 2.0 13.0 0.00 0.02 0.02 72 1010.8
20260503171937 54 185 3.0 7.0 0.00 0.02 0.02 72 1011.2
20260503171433 54 196 7.0 7.0 0.00 0.02 0.02 73 1011.0
20260503170931 53 106 3.0 8.0 0.00 0.02 0.02 72 1011.3
20260503170427 53 180 3.0 5.0 0.00 0.02 0.02 76 1011.3
20260503150819 50 196 5.0 5.0 0.05 0.01 0.01 78 1013.3
20260503150315 51 186 0.0 8.0 0.02 0.00 0.00 75 1013.5
20260503140240 53 199 11.0 17.0 0.00 0.00 0.00 63 1013.0
20260503131209 51 198 10.0 10.0 0.00 0.00 0.00 66 1013.5
20260503130707 51 191 1.0 9.0 0.00 0.00 0.00 66 1013.3
20260503130204 51 194 4.0 8.0 0.00 0.00 0.00 67 1013.3
20260503120130 46 184 5.0 10.0 0.00 0.00 0.00 71 1013.1
20260503110557 45 201 3.0 7.0 0.00 0.00 0.00 71 1013.4
20260503090444 43 194 1.0 5.0 0.00 0.00 0.00 71 1013.7
20260503081410 42 186 1.0 4.0 0.00 0.00 0.00 72 1014.0
20260503080908 43 183 2.0 5.0 0.00 0.00 0.00 73 1013.7
20260503080404 43 183 2.0 3.0 0.00 0.00 0.00 72 1013.9
20260503072840 43 180 1.0 4.0 0.00 0.00 0.00 71 1013.8
20260503072337 43 171 2.0 6.0 0.00 0.00 0.00 70 1013.9
20260503071834 43 183 3.0 3.0 0.00 0.00 0.00 71 1013.6
20260503071331 44 197 2.0 3.0 0.00 0.00 0.00 70 1014.0
20260503070827 44 180 2.0 3.0 0.00 0.00 0.00 70 1013.9
20260503070326 43 184 2.0 2.0 0.00 0.00 0.00 69 1014.0
20260503060250 44 194 1.0 5.0 0.00 0.00 0.00 67 1014.6
20260503054737 44 171 2.0 3.0 0.00 0.00 0.00 66 1014.4
20260503054234 44 180 2.0 4.0 0.00 0.00 0.00 67 1014.6
20260503053732 44 187 3.0 4.0 0.00 0.00 0.00 67 1014.7
20260503053231 44 183 3.0 3.0 0.00 0.00 0.00 67 1014.6
20260503052726 44 180 0.0 3.0 0.00 0.00 0.00 67 1014.7
20260503052223 44 188 0.0 4.0 0.00 0.00 0.00 66 1014.8
20260503051718 44 183 2.0 3.0 0.00 0.00 0.00 65 1014.8
20260503051217 44 214 0.0 2.0 0.00 0.00 0.00 66 1014.8
20260503050713 44 172 2.0 3.0 0.00 0.00 0.00 65 1014.7
20260503050209 44 190 2.0 3.0 0.00 0.00 0.00 65 1015.0
20260503045707 44 180 0.0 3.0 0.00 0.00 0.00 65 1014.8
20260503045204 45 185 1.0 2.0 0.00 0.00 0.00 64 1014.8
20260503044700 45 180 0.0 3.0 0.00 0.00 0.00 62 1014.8
20260503044158 45 206 2.0 4.0 0.00 0.00 0.00 61 1014.8
20260503043655 45 197 3.0 4.0 0.00 0.00 0.00 61 1014.9
20260503043152 45 180 2.0 4.0 0.00 0.00 0.00 61 1014.9
20260503042648 45 192 1.0 3.0 0.00 0.00 0.00 61 1014.8
20260503042145 46 191 0.0 3.0 0.00 0.00 0.00 61 1015.1
20260503041641 46 203 2.0 3.0 0.00 0.00 0.00 60 1015.0
20260503041139 46 198 3.0 4.0 0.00 0.00 0.00 60 1015.0
20260503040636 46 199 2.0 4.0 0.00 0.00 0.00 59 1015.0
20260503040134 46 197 2.0 5.0 0.00 0.00 0.00 59 1015.1
20260503035630 46 206 3.0 3.0 0.00 0.00 0.00 60 1015.1
20260503035128 46 186 4.0 4.0 0.00 0.00 0.00 60 1014.8
20260503034625 46 194 1.0 3.0 0.00 0.00 0.00 61 1014.9
20260503034122 46 209 1.0 2.0 0.00 0.00 0.00 61 1015.0
20260503033619 46 180 1.0 3.0 0.00 0.00 0.00 61 1015.0
20260503033116 46 191 1.0 2.0 0.00 0.00 0.00 60 1015.1
20260503032615 46 200 1.0 3.0 0.00 0.00 0.00 60 1015.0
20260503032113 46 185 0.0 3.0 0.00 0.00 0.00 61 1014.8
20260503031610 46 188 2.0 2.0 0.00 0.00 0.00 60 1015.1
20260503031108 46 191 1.0 3.0 0.00 0.00 0.00 61 1015.0
20260503030603 47 187 0.0 3.0 0.00 0.00 0.00 60 1015.1
20260503030100 47 187 2.0 3.0 0.00 0.00 0.00 61 1015.2
20260503025557 47 191 0.0 3.0 0.00 0.00 0.00 60 1015.3
20260503025055 47 191 0.0 3.0 0.00 0.00 0.00 61 1015.2
20260503024550 47 188 0.0 2.0 0.00 0.00 0.00 60 1015.1
20260503024048 47 180 0.0 3.0 0.00 0.00 0.00 61 1015.1
20260503023544 47 186 0.0 4.0 0.00 0.00 0.00 60 1015.3
20260503023042 47 183 3.0 3.0 0.00 0.00 0.00 60 1015.2
20260503022538 47 194 0.0 2.0 0.00 0.00 0.00 61 1015.0
20260503022033 46 185 0.0 3.0 0.00 0.00 0.00 62 1015.1
20260503021530 47 180 0.0 1.0 0.00 0.00 0.00 62 1015.0
20260503021027 47 185 1.0 2.0 0.00 0.00 0.00 62 1015.1
20260503020524 47 186 0.0 2.0 0.00 0.00 0.00 61 1015.1
20260503020021 47 188 0.0 1.0 0.00 0.00 0.00 61 1015.1
20260503015518 47 180 0.0 2.0 0.00 0.00 0.00 60 1015.2
20260503015015 47 187 0.0 0.0 0.00 0.00 0.00 58 1015.1
20260503014511 48 187 0.0 0.0 0.00 0.00 0.00 56 1015.1
20260503014009 49 187 0.0 2.0 0.00 0.00 0.00 55 1015.2
20260503013506 48 187 0.0 2.0 0.00 0.00 0.00 57 1015.2
20260503013003 48 188 0.0 0.0 0.00 0.00 0.00 56 1015.0
20260503012501 49 188 0.0 0.0 0.00 0.00 0.00 54 1014.9
20260503011956 50 188 0.0 0.0 0.00 0.00 0.00 53 1015.0
20260503011454 50 188 0.0 1.0 0.00 0.00 0.00 53 1014.9
20260503010951 50 188 0.0 0.0 0.00 0.00 0.00 52 1015.0
20260503010447 51 187 0.0 0.0 0.00 0.00 0.00 51 1015.1
20260503005945 52 185 0.0 1.0 0.00 0.00 0.00 50 1014.9
20260503005442 52 187 1.0 1.0 0.00 0.00 0.00 48 1014.9
20260503004938 53 198 0.0 2.0 0.00 0.00 0.00 46 1015.0
20260503004435 53 184 0.0 2.0 0.00 0.00 0.00 46 1014.9
20260503003933 54 254 0.0 0.0 0.00 0.00 0.00 46 1015.0
20260503003430 55 279 0.0 2.0 0.00 0.00 0.00 45 1015.2
20260503002927 55 277 1.0 3.0 0.00 0.00 0.00 43 1014.9
20260503002424 57 198 0.0 3.0 0.00 0.00 0.00 42 1014.8
20260503001920 56 60 0.0 2.0 0.00 0.00 0.00 42 1014.9
20260503001416 57 240 0.0 2.0 0.00 0.00 0.00 42 1015.1
20260503000915 57 49 0.0 4.0 0.00 0.00 0.00 41 1015.1
20260503000411 57 59 0.0 2.0 0.00 0.00 0.00 40 1014.9
20260502235908 57 297 0.0 4.0 0.00 0.00 0.00 40 1015.0
20260502235405 59 324 2.0 5.0 0.00 0.00 0.00 37 1014.9
20260502234903 59 274 0.0 4.0 0.00 0.00 0.00 38 1014.9
20260502234359 59 10 3.0 5.0 0.00 0.00 0.00 37 1014.9
20260502233856 59 292 2.0 4.0 0.00 0.00 0.00 37 1015.1
20260502233352 60 8 2.0 5.0 0.00 0.00 0.00 36 1015.0
20260502232849 60 90 0.0 3.0 0.00 0.00 0.00 37 1015.1
20260502232345 59 90 0.0 5.0 0.00 0.00 0.00 38 1014.9
20260502231842 59 75 2.0 4.0 0.00 0.00 0.00 40 1015.1
20260502231340 60 243 0.0 5.0 0.00 0.00 0.00 37 1015.2
20260502230838 60 350 2.0 3.0 0.00 0.00 0.00 39 1015.1